Location: Fort Frances
(48.6170°N, 93.4170°W)
Time: 12:12:44
(UTC-05:00)

ISS - All Passes

Search period start: 03 September 2015 00:00
Search period end: 13 September 2015 00:00
Orbit: 400 x 403 km, 51.6° (Epoch: 01 September)

Date Brightness Start Highest point End Pass type
(mag) Time Alt. Az. Time Alt. Az. Time Alt. Az.
03 Sep - 07:56:22 10° SSE 07:57:20 11° SE 07:58:24 10° ESE daylight
03 Sep - 09:30:01 10° SW 09:33:13 56° SSE 09:36:26 10° ENE daylight
03 Sep - 11:06:29 10° W 11:09:41 52° N 11:12:54 10° ENE daylight
03 Sep - 12:43:10 10° WNW 12:46:24 56° NNE 12:49:37 10° E daylight
03 Sep - 14:19:39 10° WNW 14:22:48 46° SSW 14:25:55 10° SE daylight
04 Sep - 08:37:01 10° SSW 08:40:01 35° SSE 08:43:03 10° E daylight
04 Sep - 10:13:04 10° W 10:16:20 64° NNW 10:19:35 10° ENE daylight
04 Sep - 11:49:50 10° WNW 11:53:01 48° N 11:56:12 10° E daylight
04 Sep - 13:26:19 10° WNW 13:29:34 73° SSW 13:32:49 10° ESE daylight
04 Sep - 15:03:33 10° W 15:05:34 15° SW 15:07:29 10° S daylight
05 Sep - 07:44:21 10° SSW 07:46:53 21° SE 07:49:28 10° E daylight
05 Sep - 09:19:44 10° WSW 09:23:00 86° NNW 09:26:17 10° ENE daylight
05 Sep - 10:56:27 10° WNW 10:59:37 47° N 11:02:48 10° ENE daylight
05 Sep - 12:33:01 10° WNW 12:36:17 78° NNE 12:39:32 10° ESE daylight
05 Sep - 14:09:43 10° W 14:12:28 25° SW 14:15:11 10° SSE daylight
06 Sep - 06:52:19 10° SSE 06:53:49 13° SE 06:55:24 10° ESE daylight
06 Sep - 08:26:30 10° SW 08:29:44 63° SSE 08:32:59 10° ENE daylight
06 Sep - 10:03:02 10° W 10:06:15 50° N 10:09:27 10° ENE daylight
06 Sep - 11:39:42 10° WNW 11:42:57 59° NNE 11:46:11 10° E daylight
06 Sep - 13:16:13 10° WNW 13:19:18 40° SSW 13:22:23 10° SE daylight
07 Sep - 07:33:28 10° SW 07:36:32 39° SSE 07:39:36 10° ENE daylight
07 Sep - 09:09:38 10° W 09:12:53 60° NNW 09:16:07 10° ENE daylight
07 Sep - 10:46:23 10° WNW 10:49:34 49° N 10:52:46 10° E daylight
07 Sep - 12:22:51 10° WNW 12:26:06 66° SSW 12:29:20 10° SE daylight
07 Sep - 14:00:20 10° WSW 14:02:02 13° SW 14:03:39 10° SSW daylight
08 Sep - 06:40:42 10° SSW 06:43:23 24° SE 06:46:06 10° E daylight
08 Sep - 08:16:17 10° WSW 08:19:33 80° NNW 08:22:50 10° ENE daylight
08 Sep - 09:53:00 10° WNW 09:56:12 47° N 09:59:22 10° ENE daylight
08 Sep - 11:29:33 10° WNW 11:32:49 84° NNE 11:36:05 10° ESE daylight
08 Sep - 13:06:20 10° W 13:08:58 22° SW 13:11:33 10° SSE daylight
09 Sep - 05:48:27 10° S 05:50:17 15° SE 05:52:13 10° ESE visible
09 Sep - 07:23:01 10° WSW 07:26:16 70° SSE 07:29:32 10° ENE daylight
09 Sep - 08:59:37 10° W 09:02:48 49° N 09:06:00 10° ENE daylight
09 Sep - 10:36:15 10° WNW 10:39:30 62° NNE 10:42:44 10° E daylight
09 Sep - 12:12:47 10° WNW 12:15:49 36° SSW 12:18:51 10° SE daylight
10 Sep - 06:29:55 10° SW 06:33:03 44° SSE 06:36:11 10° ENE daylight
10 Sep - 08:06:12 10° W 08:09:26 57° NNW 08:12:40 10° ENE daylight
10 Sep - 09:42:55 10° WNW 09:46:08 51° N 09:49:21 10° E daylight
10 Sep - 11:19:24 10° WNW 11:22:38 59° SSW 11:25:50 10° SE daylight
10 Sep - 12:57:14 10° WSW 12:58:31 12° SW 12:59:42 10° SSW daylight
11 Sep - 05:37:05 10° SSW 05:39:52 27° SE 05:42:43 10° E visible
11 Sep - 07:12:50 10° WSW 07:16:06 74° NNW 07:19:22 10° ENE daylight
11 Sep - 08:49:35 10° WNW 08:52:46 47° N 08:55:56 10° ENE daylight
11 Sep - 10:26:05 10° WNW 10:29:22 89° SW 10:32:38 10° ESE daylight
11 Sep - 12:03:00 10° W 12:05:27 20° SW 12:07:53 10° S daylight
12 Sep - 04:44:40 10° S 04:46:47 16° SE 04:48:58 10° E visible
12 Sep - 06:19:32 10° WSW 06:22:48 78° SSE 06:26:05 10° ENE daylight
12 Sep - 07:56:11 10° W 07:59:22 48° N 08:02:34 10° ENE daylight
12 Sep - 09:32:48 10° WNW 09:36:03 66° NNE 09:39:18 10° E daylight
12 Sep - 11:09:22 10° W 11:12:20 32° SW 11:15:17 10° SSE daylight
